Time,TemperatureF,DewpointF,PressureIn,WindDirection,WindDirectionDegrees,WindSpeedMPH,WindSpeedGustMPH,Humidity,HourlyPrecipIn,Conditions,Clouds,dailyrainin,SoftwareType,DateUTC
2013-01-18 00:02:00,29.0,4.0,-100.00,North,0,0.0,0.0,33,-99.99,,,-99.99,,2013-01-18 07:02:00,
2013-01-18 00:12:00,28.0,5.0,-100.00,North,0,0.0,0.0,36,-99.99,,,-99.99,,2013-01-18 07:12:00,
2013-01-18 00:22:00,28.0,5.0,-100.00,North,0,0.0,0.0,36,-99.99,,,-99.99,,2013-01-18 07:22:00,
2013-01-18 00:32:00,28.0,5.0,-100.00,North,0,0.0,0.0,36,-99.99,,,-99.99,,2013-01-18 07:32:00,
2013-01-18 00:42:00,29.0,1.0,-100.00,NNW,334,2.0,4.0,29,-99.99,,,-99.99,,2013-01-18 07:42:00,
2013-01-18 00:52:00,29.0,1.0,-100.00,NNW,334,2.0,4.0,29,-99.99,,,-99.99,,2013-01-18 07:52:00,
2013-01-18 01:02:00,30.0,2.0,-100.00,NNW,348,2.0,5.0,29,-99.99,,,-99.99,,2013-01-18 08:02:00,
2013-01-18 01:11:00,30.0,2.0,-100.00,North,359,3.0,5.0,29,-99.99,,,-99.99,,2013-01-18 08:11:00,
2013-01-18 01:22:00,30.0,2.0,-100.00,North,359,3.0,5.0,29,-99.99,,,-99.99,,2013-01-18 08:22:00,
2013-01-18 01:32:00,30.0,2.0,-100.00,North,359,3.0,5.0,29,-99.99,,,-99.99,,2013-01-18 08:32:00,
2013-01-18 01:42:00,30.0,1.0,-100.00,North,354,3.0,5.0,29,-99.99,,,-99.99,,2013-01-18 08:42:00,
2013-01-18 01:53:00,30.0,1.0,-100.00,North,354,3.0,5.0,29,-99.99,,,-99.99,,2013-01-18 08:53:00,
2013-01-18 02:02:00,30.0,-2.0,-100.00,NNW,327,2.0,5.0,24,-99.99,,,-99.99,,2013-01-18 09:02:00,
2013-01-18 02:12:00,31.0,-2.0,-100.00,NNW,334,1.0,3.0,23,-99.99,,,-99.99,,2013-01-18 09:12:00,
2013-01-18 02:22:00,31.0,-2.0,-100.00,NNW,334,1.0,3.0,23,-99.99,,,-99.99,,2013-01-18 09:22:00,
2013-01-18 02:32:00,31.0,-2.0,-100.00,NNW,334,1.0,3.0,23,-99.99,,,-99.99,,2013-01-18 09:32:00,
2013-01-18 02:42:00,32.0,-4.0,-100.00,WNW,303,2.0,4.0,20,-99.99,,,-99.99,,2013-01-18 09:42:00,
2013-01-18 02:52:00,32.0,-4.0,-100.00,WNW,303,2.0,4.0,20,-99.99,,,-99.99,,2013-01-18 09:52:00,
2013-01-18 03:02:00,32.0,-5.0,-100.00,North,1,1.0,2.0,19,-99.99,,,-99.99,,2013-01-18 10:02:00,
2013-01-18 03:12:00,31.0,-2.0,-100.00,SE,126,1.0,3.0,22,-99.99,,,-99.99,,2013-01-18 10:12:00,
2013-01-18 03:22:00,31.0,-2.0,-100.00,SE,126,1.0,3.0,22,-99.99,,,-99.99,,2013-01-18 10:22:00,
2013-01-18 03:32:00,31.0,-2.0,-100.00,SE,126,1.0,3.0,22,-99.99,,,-99.99,,2013-01-18 10:32:00,
2013-01-18 03:42:00,31.0,-5.0,-100.00,SSE,148,0.0,1.0,20,-99.99,,,-99.99,,2013-01-18 10:42:00,
2013-01-18 03:52:00,31.0,-5.0,-100.00,SSE,148,0.0,1.0,20,-99.99,,,-99.99,,2013-01-18 10:52:00,
2013-01-18 04:02:00,31.0,-6.0,-100.00,North,0,0.0,0.0,19,-99.99,,,-99.99,,2013-01-18 11:02:00,
2013-01-18 04:12:00,32.0,-7.0,-100.00,SW,229,1.0,2.0,17,-99.99,,,-99.99,,2013-01-18 11:12:00,
2013-01-18 04:22:00,32.0,-7.0,-100.00,SW,229,1.0,2.0,17,-99.99,,,-99.99,,2013-01-18 11:22:00,
2013-01-18 04:32:00,32.0,-7.0,-100.00,SW,229,1.0,2.0,17,-99.99,,,-99.99,,2013-01-18 11:32:00,
2013-01-18 04:42:00,31.0,-6.0,-100.00,NNW,339,0.0,1.0,19,-99.99,,,-99.99,,2013-01-18 11:42:00,
2013-01-18 04:53:00,31.0,-6.0,-100.00,NNW,339,0.0,1.0,19,-99.99,,,-99.99,,2013-01-18 11:53:00,
2013-01-18 05:02:00,30.0,-3.0,-100.00,North,0,0.0,0.0,23,-99.99,,,-99.99,,2013-01-18 12:02:00,
2013-01-18 05:12:00,29.0,-3.0,-100.00,West,276,0.0,2.0,24,-99.99,,,-99.99,,2013-01-18 12:12:00,
2013-01-18 05:22:00,29.0,-3.0,-100.00,West,276,0.0,2.0,24,-99.99,,,-99.99,,2013-01-18 12:22:00,
2013-01-18 05:32:00,29.0,-3.0,-100.00,West,276,0.0,2.0,24,-99.99,,,-99.99,,2013-01-18 12:32:00,
2013-01-18 05:42:00,29.0,-2.0,-100.00,NNW,333,1.0,2.0,24,-99.99,,,-99.99,,2013-01-18 12:42:00,
2013-01-18 05:53:00,29.0,-2.0,-100.00,NNW,333,1.0,2.0,24,-99.99,,,-99.99,,2013-01-18 12:53:00,
2013-01-18 06:02:00,29.0,-3.0,-100.00,North,357,1.0,2.0,24,-99.99,,,-99.99,,2013-01-18 13:02:00,
2013-01-18 06:12:00,29.0,-2.0,-100.00,North,8,0.0,2.0,25,-99.99,,,-99.99,,2013-01-18 13:12:00,
2013-01-18 06:22:00,29.0,-2.0,-100.00,North,8,0.0,2.0,25,-99.99,,,-99.99,,2013-01-18 13:22:00,
2013-01-18 06:33:00,29.0,-2.0,-100.00,North,8,0.0,2.0,25,-99.99,,,-99.99,,2013-01-18 13:33:00,
2013-01-18 06:42:00,30.0,-5.0,-100.00,SW,225,0.0,3.0,21,-99.99,,,-99.99,,2013-01-18 13:42:00,
2013-01-18 06:53:00,30.0,-5.0,-100.00,SW,225,0.0,3.0,21,-99.99,,,-99.99,,2013-01-18 13:53:00,
2013-01-18 07:03:00,30.0,-5.0,-100.00,SW,225,0.0,3.0,21,-99.99,,,-99.99,,2013-01-18 14:03:00,
2013-01-18 07:12:00,29.0,-4.0,-100.00,East,95,1.0,2.0,22,-99.99,,,-99.99,,2013-01-18 14:12:00,
2013-01-18 07:22:00,29.0,-4.0,-100.00,East,95,1.0,2.0,22,-99.99,,,-99.99,,2013-01-18 14:22:00,
2013-01-18 07:33:00,29.0,-4.0,-100.00,East,95,1.0,2.0,22,-99.99,,,-99.99,,2013-01-18 14:33:00,
2013-01-18 07:42:00,28.0,-5.0,-100.00,South,188,5.0,7.0,22,-99.99,,,-99.99,,2013-01-18 14:42:00,
2013-01-18 07:53:00,28.0,-5.0,-100.00,South,188,5.0,7.0,22,-99.99,,,-99.99,,2013-01-18 14:53:00,
2013-01-18 08:03:00,31.0,-11.0,-100.00,SSW,207,3.0,6.0,15,-99.99,,,-99.99,,2013-01-18 15:03:00,
2013-01-18 08:12:00,32.0,-13.0,-100.00,ESE,122,0.0,3.0,13,-99.99,,,-99.99,,2013-01-18 15:12:00,
2013-01-18 08:42:00,29.0,-5.0,-100.00,ESE,119,2.0,4.0,22,-99.99,,,-99.99,,2013-01-18 15:42:00,
2013-01-18 08:53:00,30.0,-8.0,-100.00,South,175,1.0,3.0,18,-99.99,,,-99.99,,2013-01-18 15:53:00,
2013-01-18 09:02:00,30.0,-8.0,-100.00,South,175,1.0,3.0,18,-99.99,,,-99.99,,2013-01-18 16:02:00,
2013-01-18 09:12:00,31.0,-8.0,-100.00,West,265,1.0,3.0,17,-99.99,,,-99.99,,2013-01-18 16:12:00,
2013-01-18 09:23:00,31.0,-8.0,-100.00,West,265,1.0,3.0,17,-99.99,,,-99.99,,2013-01-18 16:23:00,
2013-01-18 09:32:00,31.0,-8.0,-100.00,West,265,1.0,3.0,17,-99.99,,,-99.99,,2013-01-18 16:32:00,
2013-01-18 09:42:00,31.0,-5.0,-100.00,NNW,344,0.0,1.0,20,-99.99,,,-99.99,,2013-01-18 16:42:00,
2013-01-18 09:53:00,31.0,-5.0,-100.00,NNW,344,0.0,1.0,20,-99.99,,,-99.99,,2013-01-18 16:53:00,
2013-01-18 10:02:00,30.0,-3.0,-100.00,NW,317,0.0,2.0,23,-99.99,,,-99.99,,2013-01-18 17:02:00,
2013-01-18 10:12:00,31.0,-3.0,-100.00,NW,307,1.0,2.0,21,-99.99,,,-99.99,,2013-01-18 17:12:00,
2013-01-18 10:23:00,31.0,-3.0,-100.00,NW,307,1.0,2.0,21,-99.99,,,-99.99,,2013-01-18 17:23:00,
2013-01-18 10:33:00,31.0,-3.0,-100.00,NW,307,1.0,2.0,21,-99.99,,,-99.99,,2013-01-18 17:33:00,
2013-01-18 10:42:00,31.0,-1.0,-100.00,NW,316,0.0,1.0,25,-99.99,,,-99.99,,2013-01-18 17:42:00,
2013-01-18 10:53:00,31.0,-1.0,-100.00,NW,316,0.0,1.0,25,-99.99,,,-99.99,,2013-01-18 17:53:00,
2013-01-18 11:03:00,31.0,-1.0,-100.00,NW,316,0.0,1.0,25,-99.99,,,-99.99,,2013-01-18 18:03:00,
2013-01-18 11:12:00,33.0,-4.0,-100.00,NNE,16,0.0,2.0,20,-99.99,,,-99.99,,2013-01-18 18:12:00,
2013-01-18 11:23:00,33.0,-4.0,-100.00,NNE,16,0.0,2.0,20,-99.99,,,-99.99,,2013-01-18 18:23:00,
2013-01-18 11:33:00,33.0,-4.0,-100.00,NNE,16,0.0,2.0,20,-99.99,,,-99.99,,2013-01-18 18:33:00,
2013-01-18 11:43:00,33.0,0.0,-100.00,NNE,32,0.0,3.0,23,-99.99,,,-99.99,,2013-01-18 18:43:00,
2013-01-18 11:53:00,33.0,0.0,-100.00,NNE,32,0.0,3.0,23,-99.99,,,-99.99,,2013-01-18 18:53:00,
2013-01-18 12:02:00,32.0,0.0,-100.00,NNE,21,1.0,2.0,24,-99.99,,,-99.99,,2013-01-18 19:02:00,
2013-01-18 12:12:00,33.0,4.0,-100.00,NW,322,0.0,2.0,28,-99.99,,,-99.99,,2013-01-18 19:12:00,
2013-01-18 12:22:00,33.0,4.0,-100.00,NW,322,0.0,2.0,28,-99.99,,,-99.99,,2013-01-18 19:22:00,
2013-01-18 12:32:00,33.0,4.0,-100.00,NW,322,0.0,2.0,28,-99.99,,,-99.99,,2013-01-18 19:32:00,
2013-01-18 12:42:00,36.0,4.0,-100.00,NNW,335,0.0,1.0,25,-99.99,,,-99.99,,2013-01-18 19:42:00,
2013-01-18 12:53:00,36.0,4.0,-100.00,NNW,335,0.0,1.0,25,-99.99,,,-99.99,,2013-01-18 19:53:00,
2013-01-18 13:03:00,42.0,6.0,-100.00,WNW,292,0.0,2.0,22,-99.99,,,-99.99,,2013-01-18 20:03:00,
2013-01-18 13:12:00,45.0,8.0,-100.00,NNW,345,0.0,2.0,21,-99.99,,,-99.99,,2013-01-18 20:12:00,
2013-01-18 13:22:00,45.0,8.0,-100.00,NNW,345,0.0,2.0,21,-99.99,,,-99.99,,2013-01-18 20:22:00,
2013-01-18 13:42:00,37.0,6.0,-100.00,NNW,345,1.0,2.0,26,-99.99,,,-99.99,,2013-01-18 20:42:00,
2013-01-18 13:53:00,37.0,6.0,-100.00,NNW,345,1.0,2.0,26,-99.99,,,-99.99,,2013-01-18 20:53:00,
2013-01-18 14:03:00,39.0,4.0,-100.00,North,359,1.0,3.0,23,-99.99,,,-99.99,,2013-01-18 21:03:00,
2013-01-18 14:12:00,38.0,8.0,-100.00,North,4,1.0,3.0,27,-99.99,,,-99.99,,2013-01-18 21:12:00,
2013-01-18 14:22:00,38.0,8.0,-100.00,North,4,1.0,3.0,27,-99.99,,,-99.99,,2013-01-18 21:22:00,
2013-01-18 14:42:00,41.0,12.0,-100.00,NNE,12,1.0,3.0,29,-99.99,,,-99.99,,2013-01-18 21:42:00,
2013-01-18 14:53:00,41.0,12.0,-100.00,NNE,12,1.0,3.0,29,-99.99,,,-99.99,,2013-01-18 21:53:00,
2013-01-18 15:02:00,42.0,8.0,-100.00,NNE,23,0.0,2.0,24,-99.99,,,-99.99,,2013-01-18 22:02:00,
2013-01-18 15:12:00,38.0,9.0,-100.00,NE,34,1.0,2.0,29,-99.99,,,-99.99,,2013-01-18 22:12:00,
2013-01-18 15:22:00,38.0,9.0,-100.00,NE,34,1.0,2.0,29,-99.99,,,-99.99,,2013-01-18 22:22:00,
2013-01-18 15:32:00,38.0,9.0,-100.00,NE,34,1.0,2.0,29,-99.99,,,-99.99,,2013-01-18 22:32:00,
2013-01-18 15:42:00,38.0,9.0,-100.00,NE,34,1.0,2.0,29,-99.99,,,-99.99,,2013-01-18 22:42:00,
2013-01-18 15:53:00,42.0,10.0,-100.00,NNW,338,0.0,1.0,26,-99.99,,,-99.99,,2013-01-18 22:53:00,
2013-01-18 16:02:00,42.0,10.0,-100.00,NNW,338,0.0,1.0,26,-99.99,,,-99.99,,2013-01-18 23:02:00,
2013-01-18 16:12:00,40.0,10.0,-100.00,SSW,199,2.0,6.0,28,-99.99,,,-99.99,,2013-01-18 23:12:00,
2013-01-18 16:22:00,40.0,10.0,-100.00,SSW,199,2.0,6.0,28,-99.99,,,-99.99,,2013-01-18 23:22:00,
2013-01-18 16:42:00,36.0,6.0,-100.00,North,358,2.0,4.0,27,-99.99,,,-99.99,,2013-01-18 23:42:00,
2013-01-18 17:02:00,36.0,6.0,-100.00,NNE,16,1.0,3.0,28,-99.99,,,-99.99,,2013-01-19 00:02:00,
2013-01-18 17:12:00,34.0,9.0,-100.00,SW,234,0.0,3.0,34,-99.99,,,-99.99,,2013-01-19 00:12:00,
2013-01-18 17:22:00,34.0,9.0,-100.00,SW,234,0.0,3.0,34,-99.99,,,-99.99,,2013-01-19 00:22:00,
2013-01-18 17:32:00,34.0,9.0,-100.00,SW,234,0.0,3.0,34,-99.99,,,-99.99,,2013-01-19 00:32:00,
2013-01-18 17:42:00,32.0,9.0,-100.00,East,98,1.0,2.0,37,-99.99,,,-99.99,,2013-01-19 00:42:00,
2013-01-18 17:53:00,32.0,9.0,-100.00,East,98,1.0,2.0,37,-99.99,,,-99.99,,2013-01-19 00:53:00,
2013-01-18 18:02:00,32.0,6.0,-100.00,ENE,68,1.0,3.0,33,-99.99,,,-99.99,,2013-01-19 01:02:00,
2013-01-18 18:12:00,32.0,5.0,-100.00,North,359,2.0,4.0,30,-99.99,,,-99.99,,2013-01-19 01:12:00,
2013-01-18 18:22:00,32.0,5.0,-100.00,North,359,2.0,4.0,30,-99.99,,,-99.99,,2013-01-19 01:22:00,
2013-01-18 18:32:00,32.0,5.0,-100.00,North,359,2.0,4.0,30,-99.99,,,-99.99,,2013-01-19 01:32:00,
2013-01-18 18:42:00,32.0,4.0,-100.00,NW,310,4.0,10.0,29,-99.99,,,-99.99,,2013-01-19 01:42:00,
2013-01-18 18:52:00,32.0,4.0,-100.00,NW,310,4.0,10.0,29,-99.99,,,-99.99,,2013-01-19 01:52:00,
2013-01-18 19:02:00,32.0,5.0,-100.00,North,359,1.0,3.0,32,-99.99,,,-99.99,,2013-01-19 02:02:00,
2013-01-18 19:12:00,30.0,7.0,-100.00,NNW,348,1.0,2.0,36,-99.99,,,-99.99,,2013-01-19 02:12:00,
2013-01-18 19:22:00,30.0,7.0,-100.00,NNW,348,1.0,2.0,36,-99.99,,,-99.99,,2013-01-19 02:22:00,
2013-01-18 19:32:00,30.0,7.0,-100.00,NNW,348,1.0,2.0,36,-99.99,,,-99.99,,2013-01-19 02:32:00,
2013-01-18 19:42:00,30.0,4.0,-100.00,NW,319,4.0,12.0,31,-99.99,,,-99.99,,2013-01-19 02:42:00,
2013-01-18 19:53:00,30.0,4.0,-100.00,NW,319,4.0,12.0,31,-99.99,,,-99.99,,2013-01-19 02:53:00,
2013-01-18 20:02:00,32.0,2.0,-100.00,NW,305,6.0,10.0,27,-99.99,,,-99.99,,2013-01-19 03:02:00,
2013-01-18 20:12:00,33.0,2.0,-100.00,NNW,344,3.0,8.0,26,-99.99,,,-99.99,,2013-01-19 03:12:00,
2013-01-18 20:22:00,33.0,2.0,-100.00,NNW,344,3.0,8.0,26,-99.99,,,-99.99,,2013-01-19 03:22:00,
2013-01-18 20:32:00,33.0,2.0,-100.00,NNW,344,3.0,8.0,26,-99.99,,,-99.99,,2013-01-19 03:32:00,
2013-01-18 20:42:00,31.0,4.0,-100.00,NE,56,1.0,3.0,31,-99.99,,,-99.99,,2013-01-19 03:42:00,
2013-01-18 20:52:00,31.0,4.0,-100.00,NE,56,1.0,3.0,31,-99.99,,,-99.99,,2013-01-19 03:52:00,
2013-01-18 21:02:00,30.0,3.0,-100.00,ENE,60,2.0,3.0,30,-99.99,,,-99.99,,2013-01-19 04:02:00,
2013-01-18 21:12:00,30.0,3.0,-100.00,NW,323,1.0,3.0,29,-99.99,,,-99.99,,2013-01-19 04:12:00,
2013-01-18 21:22:00,30.0,3.0,-100.00,NW,323,1.0,3.0,29,-99.99,,,-99.99,,2013-01-19 04:22:00,
2013-01-18 21:32:00,30.0,3.0,-100.00,NW,323,1.0,3.0,29,-99.99,,,-99.99,,2013-01-19 04:32:00,
2013-01-18 21:42:00,30.0,2.0,-100.00,NE,40,1.0,3.0,29,-99.99,,,-99.99,,2013-01-19 04:42:00,
2013-01-18 21:53:00,30.0,2.0,-100.00,NE,40,1.0,3.0,29,-99.99,,,-99.99,,2013-01-19 04:53:00,
2013-01-18 22:03:00,30.0,2.0,-100.00,NE,40,1.0,3.0,29,-99.99,,,-99.99,,2013-01-19 05:03:00,
2013-01-18 22:12:00,30.0,3.0,-100.00,ENE,60,1.0,3.0,30,-99.99,,,-99.99,,2013-01-19 05:12:00,
2013-01-18 22:22:00,30.0,3.0,-100.00,ENE,60,1.0,3.0,30,-99.99,,,-99.99,,2013-01-19 05:22:00,
2013-01-18 22:32:00,30.0,3.0,-100.00,ENE,60,1.0,3.0,30,-99.99,,,-99.99,,2013-01-19 05:32:00,
2013-01-18 22:42:00,30.0,2.0,-100.00,North,2,1.0,3.0,30,-99.99,,,-99.99,,2013-01-19 05:42:00,
2013-01-18 22:53:00,30.0,2.0,-100.00,North,2,1.0,3.0,30,-99.99,,,-99.99,,2013-01-19 05:53:00,
2013-01-18 23:02:00,30.0,3.0,-100.00,South,187,1.0,6.0,31,-99.99,,,-99.99,,2013-01-19 06:02:00,
2013-01-18 23:12:00,30.0,2.0,-100.00,SW,232,5.0,9.0,30,-99.99,,,-99.99,,2013-01-19 06:12:00,
2013-01-18 23:22:00,30.0,2.0,-100.00,SW,232,5.0,9.0,30,-99.99,,,-99.99,,2013-01-19 06:22:00,
2013-01-18 23:32:00,30.0,2.0,-100.00,SW,232,5.0,9.0,30,-99.99,,,-99.99,,2013-01-19 06:32:00,
2013-01-18 23:42:00,29.0,3.0,-100.00,NNW,328,0.0,2.0,32,-99.99,,,-99.99,,2013-01-19 06:42:00,
2013-01-18 23:53:00,29.0,3.0,-100.00,NNW,328,0.0,2.0,32,-99.99,,,-99.99,,2013-01-19 06:53:00,